Flag for Taiwan Weather past 2 weeks in Taichung, Taiwan

73 °F

Partly sunny.

Feels Like: 74 °F
Forecast: 76 / 86 °F
Wind: 15 mph from Northeast

Location: Chiang Kai Shek

Current Time: Oct 9, 2015 at 5:32:14 PM

Latest Report: Oct 9, 2015 at 4:30 PM

Visibility: N/A

Pressure: 29.86 "Hg

Humidity: 78%

Dew point: 66 °F

Location of TaichungLocation

Historic Weather in Taichung — Graph


Taichung temperature yesterday

Maximum temperature yesterday: 81 °F (at 8:30 AM)
Minimum temperature yesterday: 75 °F (at 6:00 PM)
Average temperature yesterday: 77 °F

Past Weeks' High & Low Weather Summary

High95 °F (Oct 4, 1:30 PM)100% (Oct 4, 8:00 PM)30.07 "Hg (Oct 4, 8:00 PM)
Low72 °F (Oct 4, 8:00 PM)47% (Oct 4, 1:30 PM)29.12 "Hg (Sep 28, 10:00 PM)
Average80 °F76%29.83 "Hg
* Reported Sep 24 4:00 PM — Oct 9 4:30 PM, Taichung, Weather by CustomWeather, © 2015

Note: Actual official high and low records may vary slightly from our data, if they occured in-between our weather recording intervals... More about our weather records


Taichung weather history for previous 24 hours

Time TempWeatherWind HumidityBarometerVisibility
4:30 PM
Fri, Oct 9
73 °FPartly sunny.15 mph78%29.86 "HgN/A
4:00 PM73 °FLight rain. Partly sunny.17 mph78%29.86 "HgN/A
3:30 PM73 °FLight rain. Partly sunny.18 mph78%29.86 "HgN/A
3:00 PM73 °FLight rain. Partly sunny.15 mph83%29.86 "HgN/A
2:30 PM73 °FLight rain. Partly sunny.18 mph83%29.86 "HgN/A
2:00 PM73 °FLight rain. Partly sunny.17 mph83%29.86 "HgN/A
1:30 PM73 °FLight rain. Broken clouds.18 mph83%29.86 "Hg5 mi
1:00 PM73 °FLight rain. Broken clouds.16 mph89%29.86 "Hg5 mi
12:00 PM73 °FLight rain. Broken clouds.16 mph83%29.89 "Hg3 mi
11:30 AM73 °FRain. Broken clouds.16 mph89%29.89 "Hg2 mi
11:00 AM73 °FRain. Broken clouds.18 mph89%29.89 "Hg2 mi
10:30 AM73 °FRain. Broken clouds.16 mph89%29.89 "Hg2 mi
10:00 AM73 °FRain. Broken clouds.21 mph89%29.89 "Hg2 mi
9:30 AM73 °FRain. Broken clouds.21 mph89%29.89 "Hg1 mi
9:00 AM73 °FLight rain. Partly sunny.21 mph89%29.86 "Hg3 mi
8:30 AM73 °FLight rain. Partly sunny.16 mph89%29.86 "Hg4 mi
8:00 AM75 °FLight rain. Broken clouds.13 mph89%29.86 "Hg4 mi
7:30 AM73 °FRain. Broken clouds.10 mph89%29.86 "Hg2 mi
7:00 AM73 °FRain. Broken clouds.13 mph89%29.86 "Hg2 mi
6:30 AM75 °FRain. Broken clouds.7 mph89%29.83 "Hg2 mi
6:00 AM73 °FLight rain. Broken clouds.10 mph89%29.83 "Hg4 mi
5:30 AM73 °FLight rain. Partly cloudy.1 mph94%29.80 "Hg3 mi
5:00 AM73 °FRain. Partly cloudy.1 mph94%29.80 "Hg2 mi
4:30 AM73 °FLight rain. Partly cloudy.2 mph94%29.80 "Hg4 mi
4:00 AM73 °FLight rain. Partly cloudy.3 mph94%29.80 "Hg3 mi
3:00 AM73 °FLight rain. Partly cloudy.8 mph94%29.80 "HgN/A
2:00 AM75 °FLight rain. Partly cloudy.3 mph89%29.80 "HgN/A
1:30 AM75 °FLight rain. Passing clouds.13 mph89%29.80 "HgN/A
1:00 AM73 °FLight rain. Passing clouds.7 mph89%29.83 "HgN/A
12:30 AM75 °FLight rain. Passing clouds.10 mph89%29.83 "HgN/A
12:00 AM73 °FLight rain. Passing clouds.10 mph94%29.83 "Hg5 mi
11:30 PM
Thu, Oct 8
75 °FLight rain. Passing clouds.12 mph89%29.83 "Hg6 mi
11:00 PM75 °FLight rain. Partly cloudy.12 mph89%29.83 "Hg5 mi
10:30 PM75 °FLight rain. Partly cloudy.10 mph89%29.83 "Hg5 mi
10:00 PM75 °FLight rain. Passing clouds.8 mph89%29.86 "Hg4 mi
9:30 PM77 °FLight rain. Partly cloudy.10 mph83%29.86 "Hg5 mi
9:00 PM77 °FLight rain. Partly cloudy.8 mph83%29.86 "Hg4 mi
8:30 PM77 °FLight rain. Passing clouds.8 mph83%29.86 "HgN/A
8:00 PM77 °FPartly cloudy.7 mph83%29.83 "HgN/A
7:53 PM77 °FPartly cloudy.7 mph83%29.83 "HgN/A
7:30 PM77 °FLight rain. Partly cloudy.7 mph83%29.83 "Hg4 mi
7:00 PM75 °FScattered showers. Partly cloudy.3 mph89%29.83 "HgN/A
6:30 PM77 °FPartly cloudy.7 mph83%29.80 "HgN/A
6:00 PM75 °FPartly cloudy.8 mph89%29.80 "HgN/A
5:30 PM77 °FPartly sunny.6 mph83%29.80 "Hg5 mi
5:00 PM77 °FLight rain. Partly sunny.6 mph83%29.80 "Hg5 mi
Weather by CustomWeather, © 2015

See weather overviewHow to use our weather pages